KA0WUC-13 Weather Reports


time (UTC)temp
F
wind
direction
speed
knots
gust
knots
rain 1hr
in
rain 24hr
in
rain mn
in
humidity
%
barometer
mb
20260508013015 73 186 1.7 3.5 0.00 0.00 0.00 23 1012.0
20260508012016 74 186 1.7 6.1 0.00 0.00 0.00 22 1012.0
20260508011014 75 12 1.7 4.3 0.00 0.00 0.00 20 1012.0
20260508010016 76 158 2.6 5.2 0.00 0.00 0.00 19 1012.2
20260508005036 76 184 1.7 4.3 0.00 0.00 0.00 19 1012.1
20260508004016 76 211 3.5 7.8 0.00 0.00 0.00 18 1012.1
20260508003016 77 209 1.7 7.8 0.00 0.00 0.00 18 1012.2
20260508002017 77 210 2.6 8.7 0.00 0.00 0.00 17 1012.3
20260508001016 77 220 2.6 7.8 0.00 0.00 0.00 17 1012.6
20260508000016 77 251 2.6 7.0 0.00 0.00 0.00 17 1012.4
20260507235016 77 253 1.7 8.7 0.00 0.00 0.00 17 1012.6
20260507234036 77 360 5.2 13.9 0.00 0.00 0.00 17 1012.6
20260507233016 77 196 1.7 7.8 0.00 0.00 0.00 16 1012.8
20260507232016 77 196 3.5 7.0 0.00 0.00 0.00 17 1013.0
20260507231016 76 251 6.1 11.3 0.00 0.00 0.00 17 1013.2
20260507230016 76 257 4.3 12.2 0.00 0.01 0.00 17 1013.2
20260507225016 76 256 5.2 12.2 0.00 0.01 0.00 16 1013.3
20260507224016 77 261 3.5 7.8 0.00 0.01 0.00 17 1013.7
20260507223016 76 283 4.3 12.2 0.00 0.01 0.00 17 1013.5
20260507222016 77 264 5.2 10.4 0.00 0.01 0.00 17 1013.9
20260507221036 76 292 2.6 10.4 0.00 0.01 0.00 18 1013.9
20260507220016 76 273 3.5 8.7 0.00 0.01 0.00 17 1014.1
20260507215016 76 263 2.6 10.4 0.00 0.01 0.00 17 1014.2
20260507214016 76 280 3.5 9.6 0.00 0.02 0.00 18 1014.4
20260507213016 75 279 6.1 13.9 0.00 0.03 0.00 19 1014.3
20260507212036 75 360 3.5 12.2 0.00 0.03 0.00 19 1014.5
20260507211016 75 315 4.3 18.2 0.00 0.03 0.00 19 1014.6
20260507210016 75 230 5.2 10.4 0.00 0.03 0.00 20 1014.9
20260507205017 75 259 4.3 10.4 0.00 0.03 0.00 20 1015.4
20260507204036 75 276 2.6 11.3 0.00 0.03 0.00 21 1015.4
20260507203016 74 312 3.5 10.4 0.00 0.03 0.00 21 1015.6
20260507202016 73 283 5.2 13.0 0.00 0.03 0.00 21 1015.9
20260507201016 73 297 3.5 9.6 0.00 0.03 0.00 22 1016.3
20260507200016 73 272 6.1 11.3 0.00 0.04 0.00 22 1016.5
20260507195015 73 271 5.2 9.6 0.00 0.04 0.00 22 1016.6
20260507194016 73 271 3.5 8.7 0.00 0.05 0.00 24 1017.1
20260507193016 72 289 4.3 10.4 0.00 0.05 0.00 25 1017.0
20260507192015 72 277 3.5 9.6 0.00 0.06 0.00 26 1017.2
20260507191015 72 288 3.5 7.8 0.00 0.07 0.00 27 1017.5
20260507190016 71 287 4.3 8.7 0.00 0.08 0.00 28 1017.9
20260507185015 70 289 6.1 12.2 0.00 0.09 0.00 27 1017.9
20260507184015 70 272 6.1 12.2 0.00 0.10 0.00 27 1018.0
20260507183016 69 273 7.0 13.0 0.00 0.11 0.00 29 1018.2
20260507182015 68 256 7.0 13.9 0.00 0.12 0.00 29 1018.3
20260507181136 68 274 5.2 14.8 0.00 0.13 0.00 31 1018.4
20260507180015 67 296 5.2 15.6 0.00 0.14 0.00 32 1018.5
20260507175015 66 291 7.0 15.6 0.00 0.15 0.00 34 1018.6
20260507174035 66 324 6.1 13.9 0.00 0.17 0.00 37 1018.6
20260507173055 65 278 7.8 14.8 0.00 0.18 0.00 38 1018.4
20260507172016 64 268 7.8 14.8 0.00 0.19 0.00 38 1018.7
20260507171015 64 266 7.8 13.0 0.00 0.20 0.00 40 1018.8
20260507170016 63 266 6.1 16.5 0.00 0.22 0.00 41 1018.9
20260507165015 61 266 8.7 16.5 0.00 0.23 0.00 41 1018.8
20260507164015 60 275 7.0 19.1 0.00 0.25 0.00 46 1019.1
20260507163015 59 278 7.8 13.9 0.00 0.26 0.00 48 1019.0
20260507162015 58 337 7.0 13.9 0.00 0.27 0.00 51 1019.1
20260507161035 58 268 7.0 14.8 0.00 0.29 0.00 50 1019.3
20260507160015 57 321 7.8 16.5 0.00 0.30 0.00 49 1019.4
20260507155015 56 336 8.7 18.2 0.00 0.31 0.00 50 1019.5
20260507154015 55 320 6.1 15.6 0.00 0.32 0.00 54 1019.4
20260507153015 54 256 8.7 15.6 0.00 0.33 0.00 58 1019.6
20260507152015 53 261 9.6 16.5 0.00 0.34 0.00 62 1019.6
20260507151056 51 264 5.2 14.8 0.00 0.35 0.00 69 1019.5
20260507150015 49 302 6.1 13.0 0.00 0.36 0.00 75 1019.4
20260507145015 48 299 6.1 13.9 0.00 0.37 0.00 77 1019.6
20260507144015 47 279 6.1 12.2 0.00 0.38 0.00 76 1019.6
20260507143015 46 272 6.1 14.8 0.00 0.39 0.00 76 1019.4
20260507142015 45 290 8.7 15.6 0.00 0.39 0.00 79 1019.5
20260507141015 44 355 6.1 13.9 0.00 0.40 0.00 82 1019.5
20260507140015 43 268 5.2 9.6 0.00 0.40 0.00 84 1019.4
20260507135015 41 259 3.5 9.6 0.00 0.40 0.00 86 1019.3
20260507134055 40 262 5.2 11.3 0.00 0.40 0.00 86 1019.0
20260507133035 39 272 5.2 10.4 0.00 0.40 0.00 87 1019.2
20260507132015 38 266 5.2 9.6 0.00 0.40 0.00 88 1019.0
20260507131014 37 277 2.6 8.7 0.00 0.40 0.00 88 1018.9
20260507130014 36 269 3.5 10.4 0.00 0.40 0.00 88 1019.0
20260507125036 35 263 3.5 7.8 0.00 0.40 0.00 89 1018.6
20260507124015 35 261 2.6 7.8 0.00 0.40 0.00 90 1018.4
20260507123015 34 256 4.3 8.7 0.00 0.40 0.00 91 1018.2
20260507122035 33 256 2.6 6.1 0.00 0.40 0.00 91 1018.2
20260507121015 33 250 2.6 6.1 0.00 0.40 0.00 91 1018.4
20260507120014 33 249 1.7 5.2 0.00 0.40 0.00 92 1018.1
20260507115015 32 230 1.7 4.3 0.00 0.40 0.00 91 1018.0
20260507114017 32 230 0.9 3.5 0.00 0.40 0.00 91 1018.2
20260507113035 31 236 1.7 4.3 0.00 0.40 0.00 91 1018.2
20260507112016 31 243 1.7 3.5 0.00 0.40 0.00 91 1018.3
20260507111016 32 242 0.9 2.6 0.00 0.40 0.00 90 1018.4
20260507110015 32 242 0.9 3.5 0.00 0.40 0.00 91 1018.3
20260507105014 32 254 1.7 4.3 0.00 0.40 0.00 90 1018.4
20260507104016 33 277 1.7 3.5 0.00 0.40 0.00 90 1018.5
20260507103017 33 253 1.7 5.2 0.00 0.40 0.00 91 1018.8
20260507102015 33 247 3.5 7.0 0.00 0.40 0.00 91 1018.7
20260507101117 33 254 2.6 7.8 0.00 0.40 0.00 92 1018.5
20260507100016 32 247 3.5 8.7 0.00 0.40 0.00 91 1018.6
20260507095016 32 0.0 1.7 0.00 0.40 0.00 91 1018.6
20260507094036 32 261 0.9 3.5 0.00 0.40 0.00 91 1018.5
20260507093016 32 0.0 1.7 0.00 0.40 0.00 91 1018.5
20260507092017 32 261 0.0 1.7 0.00 0.40 0.00 91 1018.7
20260507091015 32 261 0.9 2.6 0.00 0.40 0.00 91 1018.7
20260507090016 33 264 1.7 5.2 0.00 0.40 0.00 91 1018.7
20260507085016 33 251 1.7 3.5 0.00 0.40 0.00 91 1018.8
20260507084016 33 270 1.7 3.5 0.00 0.41 0.00 91 1018.9
20260507083016 33 253 1.7 2.6 0.00 0.41 0.00 91 1018.9
20260507082016 33 257 1.7 3.5 0.00 0.42 0.00 91 1019.2
20260507081016 33 263 1.7 3.5 0.00 0.43 0.00 90 1019.3
20260507080016 33 275 1.7 2.6 0.00 0.44 0.00 90 1019.4
20260507075016 34 0.0 1.7 0.00 0.47 0.00 90 1019.7
20260507074016 34 285 0.9 2.6 0.00 0.48 0.00 90 1019.5
20260507073016 35 258 1.7 5.2 0.00 0.48 0.00 91 1019.8
20260507072036 35 265 1.7 3.5 0.00 0.49 0.00 91 1019.8
20260507071016 35 307 0.9 2.6 0.00 0.49 0.00 91 1019.6
20260507070016 35 293 1.7 3.5 0.00 0.49 0.00 91 1019.6
20260507065016 35 242 0.0 2.6 0.00 0.49 0.00 90 1019.7
20260507064016 35 240 0.0 1.7 0.00 0.50 0.00 90 1019.8
20260507063016 36 240 0.0 1.7 0.00 0.50 0.00 90 1019.9
20260507062015 36 240 0.0 1.7 0.00 0.50 0.00 91 1020.1
20260507061016 36 237 0.9 3.5 0.00 0.50 0.00 91 1020.2
20260507060016 36 220 0.9 4.3 0.00 0.50 0.50 91 1020.2
20260507055015 36 225 2.6 5.2 0.00 0.50 0.50 92 1020.2
20260507054015 35 235 1.7 5.2 0.00 0.50 0.50 92 1019.9
20260507053015 34 0.0 0.0 0.00 0.50 0.50 91 1020.0
20260507052015 34 0.0 0.0 0.00 0.51 0.50 91 1020.1
20260507051015 34 0.0 0.0 0.00 0.51 0.50 91 1020.1
20260507050015 34 0.0 0.0 0.00 0.51 0.50 90 1020.2
20260507045035 34 0.0 0.0 0.00 0.51 0.50 90 1020.3
20260507044035 34 0.0 0.0 0.00 0.51 0.50 90 1020.4
20260507043016 34 0.0 0.0 0.00 0.51 0.50 90 1020.4
20260507042037 34 0.0 0.0 0.00 0.51 0.50 90 1020.1
20260507041017 35 0.0 0.0 0.00 0.51 0.50 90 1020.4
20260507040017 35 0.0 0.0 0.00 0.51 0.50 90 1020.3
20260507035015 36 0.0 0.0 0.00 0.51 0.50 89 1020.4
20260507034015 36 0.0 0.0 0.00 0.52 0.50 89 1020.3
20260507033015 36 0.0 0.0 0.00 0.53 0.50 89 1020.3
20260507032038 37 0.0 0.0 0.00 0.53 0.50 89 1020.4
20260507031016 37 0.0 0.0 0.00 0.54 0.50 89 1020.3
20260507030037 38 0.0 0.0 0.00 0.55 0.50 89 1020.3
20260507025016 38 0.0 0.0 0.00 0.56 0.50 89 1020.4
20260507024016 39 0.0 0.0 0.00 0.56 0.50 88 1020.4
20260507023016 39 236 0.0 2.6 0.00 0.56 0.50 88 1020.3
20260507022016 39 0.0 1.7 0.00 0.56 0.50 88 1020.2
20260507021017 40 211 0.0 2.6 0.00 0.56 0.50 88 1020.3
20260507020037 40 196 0.9 2.6 0.00 0.56 0.50 88 1020.4
20260507015016 40 0.0 0.0 0.00 0.56 0.50 87 1020.4
20260507014016 41 0.0 2.6 0.00 0.56 0.50 87 1020.5